Retour au catalogue

FLOCK 4G 16

ActifSciencePO
NORAD 62638·PAYLOAD·🇺🇸 United States

Lancé Jan 14, 2025 depuis Vandenberg Space Force Base

Loading…

Prochains Passages (prochaines 24 heures)

TLE

VieillissantSource: Space-Track

Époque: Sep 7, 2026, 20:06 UTC

1 62638U 25009AF  26250.83760609  .05968266  24647-5  14991-2 0  9991
2 62638  97.3651 346.8474 0014946 274.9589  84.9998 16.28711644 92550

Suivez FLOCK 4G 16 en temps réel avec AllMySat

Download on the App Store